Regional Weather Roundup
Issued by NWS

Home | Current Version | Previous Version | Graphics & Text | Print | Product List | Glossary On
Versions: 1 2 3 4 5 6 7 8 9 10 11 12 13 14 15 16 17 18 19 20 21 22 23 24 25 26 27 28 29 30 31 32 33 34 35 36 37 38 39 40 41 42 43 44 45 46 47 48 49 50
000
ASUS43 KMPX 251910
RWRMN
WEATHER ROUNDUP FOR MINNESOTA
NATIONAL WEATHER SERVICE TWIN CITIES/CHANHASSEN MN
200 PM CDT THU AUG 25 2016


NOTE: "FAIR" INDICATES FEW OR NO CLOUDS BELOW 12,000 FEET WITH NO
SIGNIFICANT WEATHER AND/OR OBSTRUCTIONS TO VISIBILITY. N/A MEANS
CURRENT SKY AND/OR WEATHER CONDITIONS ARE NOT AVAILABLE.

MNZ060>063-068>070-252000-
   Twin Cities Metro

CITY           SKY/WX    TMP DP  RH WIND       PRES   REMARKS
TWIN CITIES    CLOUDY    72  55  55 W14       30.06S
ST PAUL        PTSUNNY   71  55  56 W13       30.06S
CRYSTAL        PTSUNNY   72  54  53 W14       30.05S
BLAINE         PTSUNNY   72  55  56 W16G22    30.05S
LAKEVILLE      CLOUDY    68  55  64 SW9G16    30.07F
EDEN PRAIRIE   CLOUDY    72  55  55 W14G20    30.06S
LAKEVILLE      CLOUDY    68  55  64 SW9G16    30.07F
SOUTH ST PAUL  CLOUDY    71  53  52 W10       30.06S
LAKE ELMO      FAIR      70  55  60 W10G25    30.06S
$$
MNZ001>005-007-008-013>017-022>024-027-028-252000-
   Northwest Minnesota

CITY           SKY/WX    TMP DP  RH WIND       PRES   REMARKS
BEMIDJI        CLOUDY    62  54  74 W16G24    30.00R
HALLOCK        PTSUNNY   66  52  59 NW14      30.01S
ROSEAU         SUNNY     63  54  72 NW14      29.98R
WARROAD        CLOUDY    61  55  82 MISG      29.97R
THIEF RVR FALL CLOUDY    64  52  64 NW15      30.03R
CROOKSTON      MOSUNNY   66  50  55 N21       30.03S
FOSSTON        CLOUDY    59  54  82 W12G18    30.03R
DETROIT LAKES  MOSUNNY   61  55  82 W13       30.07R
MOORHEAD       PTSUNNY   66  54  63 NW14      30.07S
PARK RAPIDS    RAIN      61  56  83 W16       30.03R
MAHNOMEN       CLOUDY    62  52  71 NW15G22   30.04R
$$
MNZ006-009>011-018-025>026-252000-
   North Central Minnesota

CITY           SKY/WX    TMP DP  RH WIND       PRES   REMARKS
BAUDETTE       CLOUDY    63  57  81 W17G26    29.93R
FLAG ISLAND    CLOUDY    61  54  77 NW8       29.93R
INTL FALLS       N/A     65  56  72 W9        29.90S
WASKISH        MOSUNNY   64  59  82 W18       29.95R
BIG FORK       LGT RAIN  64  55  72 W9G16     29.96R
LONGVILLE      CLOUDY    64  55  72 SW9       30.00S
GRAND RAPIDS   CLOUDY    64  54  69 W9        30.00S
CRANE LAKE     CLOUDY    63  55  77 W7        29.92S
ORR            CLOUDY    61  54  77 W8        29.91R HAZE
COOK           CLOUDY    64  54  68 W9G16     29.94R
WALKER         CLOUDY    63  55  75 W14G22    30.00S
$$
MNZ012-019>021-037-252000-
   Northeast Minnesota

CITY           SKY/WX    TMP DP  RH WIND       PRES   REMARKS
DULUTH         PTSUNNY   67  54  63 W18G26    29.97R
ELY            CLOUDY    64  52  63 W18       29.92S
HIBBING        CLOUDY    62  52  69 W9G20     29.96S
EVELETH        MOSUNNY   64  52  64 W15       29.97R
DULUTH HARBOR  CLOUDY    70  55  60 SW21G29   29.96R
TWO HARBORS    PTSUNNY   72  57  60 W12G20    29.92S
SILVER BAY     CLOUDY    70  54  56 W6        29.92R
GRAND MARAIS     N/A     66  58  75 W9        29.86S
G MARAIS ARPRT CLOUDY    66  48  52 W7G16     29.90S
$$
MNZ029>031-032-039>041-046>048-054>057-064-252000-
   West Central Minnesota

CITY           SKY/WX    TMP DP  RH WIND       PRES   REMARKS
FERGUS FALLS   CLOUDY    64  54  68 W14       30.09S
WHEATON        PTSUNNY   66  55  68 W14       30.11R
MORRIS         PTSUNNY   66  54  63 W12       30.09S
ALEXANDRIA     CLOUDY    63  52  67 W15       30.10R
ELBOW LAKE     CLOUDY    63  54  71 NW14      30.09R
WADENA         CLOUDY    63  55  77 W12G22    30.05S
GLENWOOD       MOSUNNY   64  54  68 W13       30.10R
APPLETON       PTSUNNY   70  54  56 W12       30.10S
BENSON         CLOUDY    66  52  59 NW12G17   30.10S
ORTONVILLE     CLOUDY    66  52  59 W9G18     30.11S
MADISON        MOSUNNY   68  54  60 NW12      30.11S
WILLMAR        PTSUNNY   70  57  64 NW9       30.11R
$$
MNZ033>034-036-042>043-049>051-058-059-252000-
   Central Minnesota

CITY           SKY/WX    TMP DP  RH WIND       PRES   REMARKS
ST CLOUD       CLOUDY    69  54  58 W15G23    30.07R
SAUK CENTRE    CLOUDY    63  53  68 W12G20    30.09R
PAYNESVILLE    MOSUNNY   66  52  60 W15       30.09S
AITKIN         CLOUDY    64  52  63 SW7G16    30.02S
PINE RIVER     CLOUDY    64  54  68 W9        30.05F
BRAINERD       CLOUDY    63  53  70 SW14      30.05S
STAPLES        CLOUDY    66  54  63 W14       30.05S
LONG PRAIRIE   CLOUDY    63  52  67 W10       30.08S
LITTLE FALLS   CLOUDY    63  50  63 W9G17     30.07R
LITCHFIELD     MOSUNNY   70  57  64 W13G18    30.09S
BUFFALO        MOSUNNY   69  54  58 SW10G20   30.08S
MAPLE LAKE     MOSUNNY   70  57  63 W13       30.08S
HUTCHINSON     SUNNY     70  58  66 W13       30.10S
$$
MNZ037-044-045-052-053-252000-
   East Central Minnesota

CITY           SKY/WX    TMP DP  RH WIND       PRES   REMARKS
PRINCETON      MOSUNNY   72  55  56 W15       30.06R
MORA           MOSUNNY   66  52  59 W13       30.05S
CAMBRIDGE      CLOUDY    72  55  56 W15G21    30.03R
RUSH CITY      MOSUNNY   69  55  60 W12G20    30.04R
MOOSE LAKE     CLOUDY    66  52  59 W13       30.00R
HINCKLEY       FAIR      70  54  56 W16G26    30.03R
CLOQUET        CLOUDY    64  52  63 W15G22    29.99R
MCGREGOR       CLOUDY    63  52  67 W10G20    30.02S
$$
MNZ071>073-080-081-089-090-097-098-252000-
   Southwest Minnesota

CITY           SKY/WX    TMP DP  RH WIND       PRES   REMARKS
MONTEVIDEO     MOSUNNY   70  55  60 N10       30.12R
GRANITE FALLS  MOSUNNY   70  57  64 W13       30.12S
CANBY          MOSUNNY   70  55  59 NW14      30.13R
MARSHALL       LGT RAIN  70  55  59 NW16      30.11F
REDWOOD FALLS  CLOUDY    70  54  56 W14       30.10F
OLIVIA         MOSUNNY   70  55  60 W14       30.09S
PIPESTONE      SUNNY     68  55  64 W13       30.14F
WINDOM         CLOUDY    72  55  56 W12       30.12F
WORTHINGTON    PTSUNNY   69  56  62 W9        30.14F
JACKSON        MOSUNNY   72  50  46 W10       30.13S
TRACY          MOSUNNY   71  57  61 NW7       30.12F
SLAYTON        PTSUNNY   70  54  56 W15       30.14S
$$
MNZ065>067-074>077-082>085-091>093-252000-
   South Central Minnesota

CITY           SKY/WX    TMP DP  RH WIND       PRES   REMARKS
MANKATO        PTSUNNY   70  55  60 W12       30.10S
NEW ULM          N/A     68  55  64 W12       30.10S
ST JAMES       CLOUDY    64  52  63 W9        30.12S
FAIRMONT       CLOUDY    71  56  58 W8        30.12S
GLENCOE        CLOUDY    69  59  71 W9        30.08F
FARIBAULT      CLOUDY    72  57  60 W10       30.09S
OWATONNA       PTSUNNY   72  57  60 W9        30.09S
WASECA         CLOUDY    68  55  64 W10       30.11S
ALBERT LEA     CLOUDY    72  59  64 W7        30.10S
$$
MNZ078>079-086>088-094>096-252000-
   Southeast Minnesota

CITY           SKY/WX    TMP DP  RH WIND       PRES   REMARKS
ROCHESTER      CLOUDY    73  61  65 W8        30.09S
RED WING       MOSUNNY   75  55  50 NW14      30.04S
STANTON        CLOUDY    72  55  56 W10G16    30.07S
DODGE CENTER   MOSUNNY   73  59  60 W12       30.09S
WINONA         CLOUDY    77  57  50 W8        30.05S
AUSTIN         PTSUNNY   72  61  68 W6        30.09F
PRESTON        CLOUDY    73  58  59 W10       30.09S
$$
ABBREVIATIONS USED IN REMARKS
   TC - TEMPERATURES IN CELSIUS
  WCI - WIND CHILL INDEX
   HX - HEAT INDEX
  VSB - VISIBILITY
$$



USA.gov is the U.S. government's official web portal to all federal, state and local government web resources and services.